Hourly Data Report for January 31, 2017

All times are specified in Local Standard Time (LST). Add 1 hour to adjust for Daylight Saving Time where and when it is observed.

TORONTO INTL A
ONTARIO

43°40'36.000" N
79°37'50.000" W
173.40 m
6158731
71624
YYZ

Download Data

Hourly Data (January 2017)
Hourly Data Report for January 31, 2017
TIME Temp Definition
°C
Dew Point Definition
°C
Rel Hum Definition
%
Wind Dir Definition
10's deg

Wind Spd Definition
km/h
Visibility Definition
km
Stn Press Definition
kPa
Hmdx Definition


Wind Chill Definition


Weather Definition


00:00 -6.2 -14.3 53 21 8 24.1 99.10   -10 LegendNANA
01:00 -6.0 -13.9 54 16 5 24.1 99.00   -8 Mostly Cloudy
02:00 -5.8 -14.2 52 11 7 24.1 98.88   -9 LegendNANA
03:00 -5.7 -13.8 53 9 8 24.1 98.76   -9 LegendNANA
04:00 -4.3 -11.4 58 13 16 24.1 98.65   -10 Cloudy
05:00 -4.3 -10.1 64 12 17 24.1 98.54   -10 LegendNANA
06:00 -4.0 -9.5 66 12 16 19.3 98.47   -10 Snow Showers
07:00 -3.8 -8.9 68 12 16 16.1 98.46   -9 Snow Showers
08:00 -3.5 -9.4 64 11 21 24.1 98.44   -10 LegendNANA
09:00 -3.2 -8.3 68 10 18 24.1 98.41   -9 Snow Showers
10:00 -3.0 -7.7 70 11 20 24.1 98.37   -9 Snow Showers
11:00 -2.8 -7.4 71 10 16 24.1 98.35   -8 Snow Showers
12:00 -2.8 -6.8 74 8 13 24.1 98.32   -7 Snow
13:00 -3.0 -6.1 79 8 15 6.4 98.28   -8 Snow
14:00 -2.8 -5.3 83 11 10 6.4 98.26   -7 Snow
15:00 -2.5 -4.8 84 9 8 12.9 98.29   -6 Snow
16:00 -2.2 -5.5 78 8 9 19.3 98.37   -6 Snow
17:00 -2.7 -5.0 84 7 10 19.3 98.44   -7 Snow
18:00 -2.8 -5.0 85 5 9 19.3 98.48   -6 Snow
19:00 -3.1 -5.0 87 7 13 9.7 98.51   -8 Snow
20:00 -3.3 -4.7 90 6 13 6.4 98.48   -8 Snow
21:00 -3.5 -4.6 92 5 6 4.8 98.48   -6 Snow
22:00 -3.6 -4.7 92 3 9 4.8 98.45   -7 Snow
23:00 -3.8 -4.8 93 3 6 6.4 98.45   -6 Snow

Notes on Data Quality.

Legend

  • E = Estimated
  • M = Missing
  • NA = Not Available
Date modified: